Voltar ao catálogo

DELTA 1 DEB

AtivoSSO
NORAD 8319·DEBRIS·🇺🇸 United States

Lançado Jul 23, 1972 de Vandenberg Space Force Base

Loading…

Próximas Passagens (próximas 24 horas)

TLE

AtualizadoSource: Space-Track

Época: Sep 14, 2026, 14:33 UTC

1 08319U 72058EM  26257.60654398  .00000413  00000-0  97664-4 0  9990
2 08319  98.6042 318.2306 0133047 165.2703 195.2429 14.54543308830669

Acompanhe DELTA 1 DEB em tempo real com AllMySat

Download on the App Store